Location: Strawberry
(45.6646°N, 111.9596°W)
Time: 20:10:17
(UTC+00:00)

AO-27 - Pass Details

Date: 11 December 2022
Orbit: 784 x 798 km, 98.9° (Epoch: 06 February)

Event Time Altitude Azimuth Distance (km) Brightness Sun altitude
Exits shadow 02:33:06 15° 355° (N) 2,058 9.8 -28.6°
Drops below altitude 10° 02:33:57 10° 353° (N) 2,381 10.2 -28.7°
Sets 02:36:18 0° 349° (N) 3,316 11.0 -29.2°
